Home > Weather > Narragansett > Past weeks

Flag for USA Past Weather in Narragansett, Rhode Island, USA — Yesterday and Last 2 Weeks

Now
69 °F

Sunny.


Feels Like: 69 °F
Forecast: 63 / 72 °F
Wind: 8 mph from Southeast

Location: Newport State Airport

Current Time: May 29, 2016 at 7:01:24 PM

Latest Report: May 29, 2016 at 5:53 PM


Visibility: 10 mi

Pressure: 30.13 "Hg

Humidity: 81%

Dew Point: 63 °F

Location of NarragansettLocation

Past Weather in Narragansett — Graph

°F

Narragansett Temperature Yesterday

Maximum temperature yesterday: 76 °F (at 1:53 PM)
Minimum temperature yesterday: 60 °F (at 4:53 AM)
Average temperature yesterday: 68 °F

High & Low Weather Summary for the Past Weeks

 TemperatureHumidityPressure
High80 °F (May 26, 9:53 AM)100% (May 25, 6:01 AM)30.22 "Hg (May 25, 6:01 AM)
Low42 °F (May 16, 3:53 AM)26% (May 16, 5:53 PM)29.54 "Hg (May 15, 3:53 AM)
Average60 °F68%30.00 "Hg
* Reported May 14 5:53 PM — May 29 5:53 PM, Narragansett, Weather by CustomWeather, © 2016

Note: Actual official high and low records may vary slightly from our data, if they occured in-between our weather recording intervals... More about our weather records

Advertising

Narragansett Weather History for the Previous 24 Hours

Scroll right to see more
 ConditionsComfort  
Time TempWeatherWind HumidityBarometerVisibility
5:53 PM
Sun, May 29
69 °FSunny.8 mph81%30.13 "Hg10 mi
4:53 PM73 °FSunny.8 mph71%30.14 "Hg10 mi
3:53 PM73 °FSunny.7 mph66%30.14 "Hg10 mi
2:53 PM73 °FSunny.9 mph66%30.15 "Hg10 mi
1:53 PM73 °FSunny.9 mph69%30.16 "Hg10 mi
12:53 PM76 °FSunny.8 mph64%30.16 "Hg10 mi
11:53 AM77 °FSunny.6 mph66%30.16 "Hg10 mi
10:53 AM74 °FSunny.6 mph71%30.17 "Hg10 mi
9:53 AM74 °FSunny.6 mph64%30.16 "Hg10 mi
8:53 AM72 °FSunny.5 mph59%30.16 "Hg10 mi
7:53 AM71 °FSunny.5 mph59%30.15 "Hg10 mi
6:53 AM67 °FSunny.3 mph66%30.14 "Hg10 mi
5:53 AM62 °FClear.No wind73%30.13 "Hg10 mi
4:53 AM64 °FClear.5 mph63%30.11 "Hg10 mi
3:53 AM64 °FClear.No wind63%30.11 "Hg10 mi
2:53 AM63 °FClear.5 mph65%30.11 "Hg10 mi
1:53 AM63 °FClear.5 mph70%30.12 "Hg10 mi
12:53 AM64 °FClear.6 mph78%30.12 "Hg10 mi
11:53 PM
Sat, May 28
66 °FClear.5 mph75%30.12 "Hg10 mi
10:53 PM66 °FClear.5 mph75%30.12 "Hg10 mi
9:53 PM67 °FClear.5 mph76%30.12 "Hg10 mi
8:53 PM66 °FSunny.5 mph78%30.11 "Hg10 mi
7:53 PM66 °FSunny.6 mph78%30.10 "Hg10 mi
Weather by CustomWeather, © 2016

See weather overviewHow to use our weather pages